Time,TemperatureF,DewpointF,PressureIn,WindDirection,WindDirectionDegrees,WindSpeedMPH,WindSpeedGustMPH,Humidity,HourlyPrecipIn,Conditions,Clouds,dailyrainin,SoftwareType,DateUTC
2013-06-18 00:01:00,56.7,51.2,29.52,NNE,23,2.5,3.4,82,0.00,,,0.00,WUHU216HW,2013-06-18 05:01:00,
2013-06-18 00:06:00,56.5,51.4,29.51,ESE,113,5.4,5.4,83,0.00,,,0.00,WUHU216HW,2013-06-18 05:06:00,
2013-06-18 00:11:00,56.5,51.0,29.51,NNE,23,2.5,5.4,82,0.00,,,0.00,WUHU216HW,2013-06-18 05:11:00,
2013-06-18 00:16:00,56.3,50.9,29.51,NNE,23,2.9,5.4,82,0.00,,,0.00,WUHU216HW,2013-06-18 05:16:00,
2013-06-18 00:21:00,56.2,50.7,29.51,NE,45,1.8,3.4,82,0.00,,,0.00,WUHU216HW,2013-06-18 05:21:00,
2013-06-18 00:26:00,56.2,50.7,29.51,NNE,23,0.9,3.4,82,0.00,,,0.00,WUHU216HW,2013-06-18 05:26:00,
2013-06-18 00:31:00,56.0,50.5,29.51,NE,45,2.2,2.2,82,0.00,,,0.00,WUHU216HW,2013-06-18 05:31:00,
2013-06-18 00:36:00,56.0,50.5,29.50,NNE,23,2.7,2.7,82,0.00,,,0.00,WUHU216HW,2013-06-18 05:36:00,
2013-06-18 00:41:00,55.8,50.7,29.50,NE,45,4.9,4.9,83,0.00,,,0.00,WUHU216HW,2013-06-18 05:41:00,
2013-06-18 00:46:00,55.8,50.7,29.50,ENE,68,3.4,4.9,83,0.00,,,0.00,WUHU216HW,2013-06-18 05:46:00,
2013-06-18 00:51:00,55.6,50.5,29.50,North,0,1.3,3.4,83,0.00,,,0.00,WUHU216HW,2013-06-18 05:51:00,
2013-06-18 00:56:00,55.6,50.5,29.50,NNE,23,6.0,6.0,83,0.00,,,0.00,WUHU216HW,2013-06-18 05:56:00,
2013-06-18 01:01:00,55.6,50.8,29.50,North,0,3.6,6.0,84,0.00,,,0.00,WUHU216HW,2013-06-18 06:01:00,
2013-06-18 01:06:00,55.6,50.8,29.51,North,0,3.6,6.0,84,0.00,,,0.00,WUHU216HW,2013-06-18 06:06:00,
2013-06-18 01:11:00,55.4,50.3,29.50,NNE,23,2.5,3.6,83,0.00,,,0.00,WUHU216HW,2013-06-18 06:11:00,
2013-06-18 01:16:00,55.6,50.5,29.50,NNE,23,1.8,3.8,83,0.00,,,0.00,WUHU216HW,2013-06-18 06:16:00,
2013-06-18 01:21:00,55.6,50.5,29.50,NE,45,2.2,3.8,83,0.00,,,0.00,WUHU216HW,2013-06-18 06:21:00,
2013-06-18 01:26:00,55.6,50.5,29.50,NNE,23,2.5,2.5,83,0.00,,,0.00,WUHU216HW,2013-06-18 06:26:00,
2013-06-18 01:31:00,55.4,50.0,29.50,NNE,23,1.6,2.5,82,0.00,,,0.00,WUHU216HW,2013-06-18 06:31:00,
2013-06-18 01:36:00,55.4,50.3,29.51,North,0,2.9,3.1,83,0.00,,,0.00,WUHU216HW,2013-06-18 06:36:00,
2013-06-18 01:41:00,55.4,50.0,29.51,NW,315,2.7,3.1,82,0.00,,,0.00,WUHU216HW,2013-06-18 06:41:00,
2013-06-18 01:46:00,55.4,50.0,29.50,East,90,4.0,4.0,82,0.00,,,0.00,WUHU216HW,2013-06-18 06:46:00,
2013-06-18 01:51:00,55.4,50.0,29.50,NNE,23,1.8,4.0,82,0.00,,,0.00,WUHU216HW,2013-06-18 06:51:00,
2013-06-18 01:56:00,55.4,50.0,29.51,NE,45,1.8,2.0,82,0.00,,,0.00,WUHU216HW,2013-06-18 06:56:00,
2013-06-18 02:01:00,55.3,49.8,29.51,NNE,23,1.6,1.8,82,0.00,,,0.00,WUHU216HW,2013-06-18 07:01:00,
2013-06-18 02:06:00,55.3,49.5,29.51,ENE,68,3.4,3.4,81,0.00,,,0.00,WUHU216HW,2013-06-18 07:06:00,
2013-06-18 02:11:00,55.3,49.5,29.51,NE,45,1.6,3.4,81,0.00,,,0.00,WUHU216HW,2013-06-18 07:11:00,
2013-06-18 02:16:00,55.3,49.5,29.51,ENE,68,3.6,3.6,81,0.00,,,0.00,WUHU216HW,2013-06-18 07:16:00,
2013-06-18 02:21:00,55.1,49.3,29.51,North,0,4.0,4.0,81,0.00,,,0.00,WUHU216HW,2013-06-18 07:21:00,
2013-06-18 02:26:00,55.1,49.3,29.51,NNE,23,4.0,4.0,81,0.00,,,0.00,WUHU216HW,2013-06-18 07:26:00,
2013-06-18 02:31:00,55.1,49.3,29.51,NE,45,1.8,4.0,81,0.00,,,0.00,WUHU216HW,2013-06-18 07:31:00,
2013-06-18 02:36:00,54.9,49.1,29.51,NE,45,1.8,4.0,81,0.00,,,0.00,WUHU216HW,2013-06-18 07:36:00,
2013-06-18 02:41:00,54.7,49.0,29.51,NE,45,3.1,3.1,81,0.00,,,0.00,WUHU216HW,2013-06-18 07:41:00,
2013-06-18 02:46:00,54.7,49.0,29.51,NNE,23,2.9,3.1,81,0.00,,,0.00,WUHU216HW,2013-06-18 07:46:00,
2013-06-18 02:51:00,54.7,49.3,29.51,ESE,113,2.2,3.1,82,0.00,,,0.00,WUHU216HW,2013-06-18 07:51:00,
2013-06-18 02:56:00,54.5,48.9,29.51,NNE,23,1.8,2.9,81,0.00,,,0.00,WUHU216HW,2013-06-18 07:56:00,
2013-06-18 03:01:00,54.5,48.9,29.51,East,90,1.3,2.2,81,0.00,,,0.00,WUHU216HW,2013-06-18 08:01:00,
2013-06-18 03:06:00,54.5,48.9,29.52,North,0,0.2,1.8,81,0.00,,,0.00,WUHU216HW,2013-06-18 08:06:00,
2013-06-18 03:11:00,54.5,48.9,29.52,NE,45,0.9,1.3,81,0.00,,,0.00,WUHU216HW,2013-06-18 08:11:00,
2013-06-18 03:16:00,54.5,48.9,29.52,NNE,23,0.2,0.9,81,0.00,,,0.00,WUHU216HW,2013-06-18 08:16:00,
2013-06-18 03:21:00,54.4,48.7,29.52,NE,45,1.1,1.1,81,0.00,,,0.00,WUHU216HW,2013-06-18 08:21:00,
2013-06-18 03:26:00,54.4,48.7,29.52,NE,45,1.8,1.8,81,0.00,,,0.00,WUHU216HW,2013-06-18 08:26:00,
2013-06-18 03:31:00,54.2,48.5,29.53,North,0,0.9,1.8,81,0.00,,,0.00,WUHU216HW,2013-06-18 08:31:00,
2013-06-18 03:36:00,54.0,48.6,29.53,NE,45,0.9,1.8,82,0.00,,,0.00,WUHU216HW,2013-06-18 08:36:00,
2013-06-18 03:41:00,54.0,48.6,29.53,NE,45,1.3,1.6,82,0.00,,,0.00,WUHU216HW,2013-06-18 08:41:00,
2013-06-18 03:46:00,53.8,48.5,29.53,NNE,23,1.8,1.8,82,0.00,,,0.00,WUHU216HW,2013-06-18 08:46:00,
2013-06-18 03:51:00,53.8,48.8,29.53,NE,45,2.5,2.5,83,0.00,,,0.00,WUHU216HW,2013-06-18 08:51:00,
2013-06-18 03:56:00,53.6,48.3,29.53,NE,45,0.4,2.5,82,0.00,,,0.00,WUHU216HW,2013-06-18 08:56:00,
2013-06-18 04:01:00,53.6,48.3,29.54,ESE,113,1.6,2.5,82,0.00,,,0.00,WUHU216HW,2013-06-18 09:01:00,
2013-06-18 04:06:00,53.6,48.3,29.54,NNE,23,1.1,1.6,82,0.00,,,0.00,WUHU216HW,2013-06-18 09:06:00,
2013-06-18 04:11:00,53.6,48.3,29.54,NE,45,3.6,3.6,82,0.00,,,0.00,WUHU216HW,2013-06-18 09:11:00,
2013-06-18 04:16:00,53.5,48.4,29.55,NNE,23,2.0,3.6,83,0.00,,,0.00,WUHU216HW,2013-06-18 09:16:00,
2013-06-18 04:21:00,53.5,48.4,29.55,NNE,23,2.5,3.6,83,0.00,,,0.00,WUHU216HW,2013-06-18 09:21:00,
2013-06-18 04:26:00,53.3,48.6,29.55,NNE,23,2.0,2.5,84,0.00,,,0.00,WUHU216HW,2013-06-18 09:26:00,
2013-06-18 04:31:00,53.3,48.6,29.55,NNE,23,1.3,2.5,84,0.00,,,0.00,WUHU216HW,2013-06-18 09:31:00,
2013-06-18 04:36:00,53.3,48.6,29.55,NNE,23,2.5,3.6,84,0.00,,,0.00,WUHU216HW,2013-06-18 09:36:00,
2013-06-18 04:41:00,53.1,48.4,29.55,NNE,23,1.8,3.6,84,0.00,,,0.00,WUHU216HW,2013-06-18 09:41:00,
2013-06-18 04:46:00,53.1,48.4,29.55,East,90,2.5,2.5,84,0.00,,,0.00,WUHU216HW,2013-06-18 09:46:00,
2013-06-18 04:51:00,52.9,48.3,29.56,NE,45,1.1,2.5,84,0.00,,,0.00,WUHU216HW,2013-06-18 09:51:00,
2013-06-18 04:56:00,52.9,48.3,29.56,NNE,23,1.1,2.5,84,0.00,,,0.00,WUHU216HW,2013-06-18 09:56:00,
2013-06-18 05:01:00,52.9,48.3,29.55,NNE,23,1.3,1.3,84,0.00,,,0.00,WUHU216HW,2013-06-18 10:01:00,
2013-06-18 05:06:00,52.9,48.3,29.56,North,0,1.6,1.6,84,0.00,,,0.00,WUHU216HW,2013-06-18 10:06:00,
2013-06-18 05:11:00,52.7,48.1,29.56,North,0,1.1,1.8,84,0.00,,,0.00,WUHU216HW,2013-06-18 10:11:00,
2013-06-18 05:16:00,52.6,47.9,29.56,NNE,23,2.2,2.2,84,0.00,,,0.00,WUHU216HW,2013-06-18 10:16:00,
2013-06-18 05:21:00,52.2,47.5,29.56,North,0,2.7,2.9,84,0.00,,,0.00,WUHU216HW,2013-06-18 10:21:00,
2013-06-18 05:26:00,52.2,47.8,29.56,NNE,23,1.8,2.9,85,0.00,,,0.00,WUHU216HW,2013-06-18 10:26:00,
2013-06-18 05:31:00,52.2,47.8,29.57,North,0,2.0,2.7,85,0.00,,,0.00,WUHU216HW,2013-06-18 10:31:00,
2013-06-18 05:36:00,52.2,47.8,29.57,North,0,2.0,2.0,85,0.00,,,0.00,WUHU216HW,2013-06-18 10:36:00,
2013-06-18 05:41:00,52.2,47.8,29.57,NE,45,2.5,2.5,85,0.00,,,0.00,WUHU216HW,2013-06-18 10:41:00,
2013-06-18 05:46:00,52.4,48.2,29.57,NNW,338,2.7,2.7,86,0.00,,,0.00,WUHU216HW,2013-06-18 10:46:00,
2013-06-18 05:51:00,52.4,48.2,29.56,NNW,338,3.4,4.0,86,0.00,,,0.00,WUHU216HW,2013-06-18 10:51:00,
2013-06-18 05:56:00,52.6,48.4,29.57,North,0,3.1,4.0,86,0.00,,,0.00,WUHU216HW,2013-06-18 10:56:00,
2013-06-18 06:01:00,52.6,48.4,29.57,North,0,3.4,3.4,86,0.00,,,0.00,WUHU216HW,2013-06-18 11:01:00,
2013-06-18 06:06:00,52.7,48.6,29.57,NNE,23,3.1,3.4,86,0.00,,,0.00,WUHU216HW,2013-06-18 11:06:00,
2013-06-18 06:11:00,52.9,48.8,29.58,WSW,248,3.1,3.4,86,0.00,,,0.00,WUHU216HW,2013-06-18 11:11:00,
2013-06-18 06:16:00,52.9,49.2,29.58,NNE,23,3.1,3.1,87,0.00,,,0.00,WUHU216HW,2013-06-18 11:16:00,
2013-06-18 06:21:00,53.1,49.0,29.58,North,0,4.7,4.7,86,0.00,,,0.00,WUHU216HW,2013-06-18 11:21:00,
2013-06-18 06:26:00,53.1,49.3,29.58,NNE,23,3.4,4.7,87,0.00,,,0.00,WUHU216HW,2013-06-18 11:26:00,
2013-06-18 06:31:00,53.5,49.7,29.58,NNE,23,3.6,4.7,87,0.00,,,0.00,WUHU216HW,2013-06-18 11:31:00,
2013-06-18 06:36:00,53.6,49.5,29.58,NNE,23,4.0,4.0,86,0.00,,,0.00,WUHU216HW,2013-06-18 11:36:00,
2013-06-18 06:41:00,53.8,49.7,29.58,North,0,2.7,4.0,86,0.00,,,0.00,WUHU216HW,2013-06-18 11:41:00,
2013-06-18 06:46:00,54.0,49.9,29.58,NNE,23,3.4,4.0,86,0.00,,,0.00,WUHU216HW,2013-06-18 11:46:00,
2013-06-18 06:51:00,54.2,50.0,29.58,North,0,3.4,3.8,86,0.00,,,0.00,WUHU216HW,2013-06-18 11:51:00,
2013-06-18 06:56:00,54.4,50.2,29.58,NNE,23,3.8,5.4,86,0.00,,,0.00,WUHU216HW,2013-06-18 11:56:00,
2013-06-18 07:01:00,54.5,50.4,29.58,NNE,23,3.4,5.4,86,0.00,,,0.00,WUHU216HW,2013-06-18 12:01:00,
2013-06-18 07:06:00,55.1,50.6,29.58,NNE,23,4.7,5.4,85,0.00,,,0.00,WUHU216HW,2013-06-18 12:06:00,
2013-06-18 07:11:00,55.3,50.5,29.59,North,0,4.7,5.4,84,0.00,,,0.00,WUHU216HW,2013-06-18 12:11:00,
2013-06-18 07:16:00,55.6,50.8,29.59,NE,45,3.8,4.7,84,0.00,,,0.00,WUHU216HW,2013-06-18 12:16:00,
2013-06-18 07:21:00,55.8,50.9,29.59,North,0,5.1,5.1,84,0.00,,,0.00,WUHU216HW,2013-06-18 12:21:00,
2013-06-18 07:26:00,56.2,51.3,29.59,NNE,23,3.8,5.1,84,0.00,,,0.00,WUHU216HW,2013-06-18 12:26:00,
2013-06-18 07:31:00,56.3,50.9,29.59,North,0,1.3,5.1,82,0.00,,,0.00,WUHU216HW,2013-06-18 12:31:00,
2013-06-18 07:36:00,56.5,51.7,29.59,NNE,23,4.0,4.9,84,0.00,,,0.00,WUHU216HW,2013-06-18 12:36:00,
2013-06-18 07:41:00,56.7,51.6,29.60,NNE,23,4.0,4.5,83,0.00,,,0.00,WUHU216HW,2013-06-18 12:41:00,
2013-06-18 07:46:00,56.9,51.8,29.60,North,0,3.8,5.4,83,0.00,,,0.00,WUHU216HW,2013-06-18 12:46:00,
2013-06-18 07:51:00,56.9,51.8,29.60,NNE,23,3.6,5.4,83,0.00,,,0.00,WUHU216HW,2013-06-18 12:51:00,
2013-06-18 07:56:00,57.2,52.1,29.59,NNE,23,3.6,4.9,83,0.00,,,0.00,WUHU216HW,2013-06-18 12:56:00,
2013-06-18 08:01:00,57.4,52.3,29.60,NNE,23,4.0,4.0,83,0.00,,,0.00,WUHU216HW,2013-06-18 13:01:00,
2013-06-18 08:06:00,57.2,52.1,29.59,NE,45,4.0,4.0,83,0.00,,,0.00,WUHU216HW,2013-06-18 13:06:00,
2013-06-18 08:11:00,57.4,52.3,29.59,NNE,23,4.0,4.0,83,0.00,,,0.00,WUHU216HW,2013-06-18 13:11:00,
2013-06-18 08:16:00,57.6,52.5,29.59,NNE,23,6.3,6.3,83,0.00,,,0.00,WUHU216HW,2013-06-18 13:16:00,
2013-06-18 08:21:00,57.6,52.5,29.59,North,0,6.0,6.3,83,0.00,,,0.00,WUHU216HW,2013-06-18 13:21:00,
2013-06-18 08:26:00,58.0,52.8,29.59,North,0,5.4,6.3,83,0.00,,,0.00,WUHU216HW,2013-06-18 13:26:00,
2013-06-18 08:31:00,58.3,52.8,29.60,NNE,23,5.8,6.0,82,0.00,,,0.00,WUHU216HW,2013-06-18 13:31:00,
2013-06-18 08:36:00,58.3,52.8,29.59,North,0,4.9,5.8,82,0.00,,,0.00,WUHU216HW,2013-06-18 13:36:00,
2013-06-18 08:41:00,58.9,53.1,29.59,North,0,6.0,6.0,81,0.00,,,0.00,WUHU216HW,2013-06-18 13:41:00,
2013-06-18 08:46:00,58.7,52.9,29.59,North,0,6.3,6.3,81,0.00,,,0.00,WUHU216HW,2013-06-18 13:46:00,
2013-06-18 08:51:00,58.5,52.8,29.59,NNE,23,4.7,6.3,81,0.00,,,0.00,WUHU216HW,2013-06-18 13:51:00,
2013-06-18 08:56:00,58.3,52.8,29.59,NNE,23,1.8,6.3,82,0.00,,,0.00,WUHU216HW,2013-06-18 13:56:00,
2013-06-18 09:01:00,58.0,52.2,29.59,NE,45,4.9,4.9,81,0.00,,,0.00,WUHU216HW,2013-06-18 14:01:00,
2013-06-18 09:06:00,57.8,52.3,29.60,NNE,23,5.1,5.1,82,0.00,,,0.00,WUHU216HW,2013-06-18 14:06:00,
2013-06-18 09:11:00,57.8,52.7,29.60,East,90,4.3,5.1,83,0.00,,,0.00,WUHU216HW,2013-06-18 14:11:00,
2013-06-18 09:16:00,58.1,53.0,29.60,NNE,23,2.5,5.1,83,0.00,,,0.00,WUHU216HW,2013-06-18 14:16:00,
2013-06-18 09:21:00,58.7,53.2,29.60,North,0,1.6,4.3,82,0.00,,,0.00,WUHU216HW,2013-06-18 14:21:00,
2013-06-18 09:26:00,59.6,53.8,29.59,North,0,3.4,4.3,81,0.00,,,0.00,WUHU216HW,2013-06-18 14:26:00,
2013-06-18 09:31:00,59.8,53.6,29.60,North,0,5.4,5.4,80,0.00,,,0.00,WUHU216HW,2013-06-18 14:31:00,
2013-06-18 09:36:00,60.3,54.6,29.60,North,0,3.4,5.4,81,0.00,,,0.00,WUHU216HW,2013-06-18 14:36:00,
2013-06-18 09:41:00,60.7,54.5,29.59,North,0,3.6,5.4,80,0.00,,,0.00,WUHU216HW,2013-06-18 14:41:00,
2013-06-18 09:46:00,60.8,54.7,29.60,NNE,23,2.7,3.6,80,0.00,,,0.00,WUHU216HW,2013-06-18 14:46:00,
2013-06-18 09:51:00,61.4,54.5,29.60,NNE,23,2.0,3.6,78,0.00,,,0.00,WUHU216HW,2013-06-18 14:51:00,
2013-06-18 09:56:00,61.6,54.3,29.60,North,0,5.1,5.1,77,0.00,,,0.00,WUHU216HW,2013-06-18 14:56:00,
2013-06-18 10:01:00,61.6,54.6,29.60,North,0,6.0,6.0,78,0.00,,,0.00,WUHU216HW,2013-06-18 15:01:00,
2013-06-18 10:06:00,61.9,54.6,29.60,North,0,2.9,6.0,77,0.00,,,0.00,WUHU216HW,2013-06-18 15:06:00,
2013-06-18 10:11:00,61.9,54.3,29.60,SE,135,4.9,6.0,76,0.00,,,0.00,WUHU216HW,2013-06-18 15:11:00,
2013-06-18 10:16:00,62.1,54.8,29.60,East,90,4.3,4.9,77,0.00,,,0.00,WUHU216HW,2013-06-18 15:16:00,
2013-06-18 10:21:00,62.1,54.5,29.60,SW,225,4.3,5.6,76,0.00,,,0.00,WUHU216HW,2013-06-18 15:21:00,
2013-06-18 10:26:00,62.3,54.5,29.60,ESE,113,5.6,5.6,76,0.00,,,0.00,WUHU216HW,2013-06-18 15:26:00,
2013-06-18 10:31:00,62.6,54.9,29.60,North,0,3.6,5.6,76,0.00,,,0.00,WUHU216HW,2013-06-18 15:31:00,
2013-06-18 10:36:00,63.0,55.3,29.60,ENE,68,1.8,5.6,76,0.00,,,0.00,WUHU216HW,2013-06-18 15:36:00,
2013-06-18 10:41:00,63.2,55.4,29.60,NNW,338,3.4,3.6,76,0.00,,,0.00,WUHU216HW,2013-06-18 15:41:00,
2013-06-18 10:46:00,63.5,55.8,29.60,North,0,1.1,3.4,76,0.00,,,0.00,WUHU216HW,2013-06-18 15:46:00,
2013-06-18 10:51:00,63.5,55.8,29.60,NNE,23,4.5,5.1,76,0.00,,,0.00,WUHU216HW,2013-06-18 15:51:00,
2013-06-18 10:56:00,63.9,56.2,29.60,SE,135,5.1,5.1,76,0.00,,,0.00,WUHU216HW,2013-06-18 15:56:00,
2013-06-18 11:01:00,64.1,56.0,29.60,NNE,23,5.4,5.4,75,0.00,,,0.00,WUHU216HW,2013-06-18 16:01:00,
2013-06-18 11:06:00,63.9,55.4,29.60,North,0,2.9,5.4,74,0.00,,,0.00,WUHU216HW,2013-06-18 16:06:00,
2013-06-18 11:11:00,64.4,56.7,29.60,East,90,5.4,5.4,76,0.00,,,0.00,WUHU216HW,2013-06-18 16:11:00,
2013-06-18 11:16:00,65.0,56.5,29.60,NNE,23,2.2,5.4,74,0.00,,,0.00,WUHU216HW,2013-06-18 16:16:00,
2013-06-18 11:21:00,65.3,56.4,29.60,North,0,5.4,6.0,73,0.00,,,0.00,WUHU216HW,2013-06-18 16:21:00,
2013-06-18 11:26:00,65.5,55.9,29.60,NNE,23,3.1,6.0,71,0.00,,,0.00,WUHU216HW,2013-06-18 16:26:00,
2013-06-18 11:31:00,65.7,56.4,29.60,NNW,338,5.8,5.8,72,0.00,,,0.00,WUHU216HW,2013-06-18 16:31:00,
2013-06-18 11:36:00,65.5,56.3,29.60,NNE,23,6.9,6.9,72,0.00,,,0.00,WUHU216HW,2013-06-18 16:36:00,
2013-06-18 11:41:00,65.5,56.3,29.60,NNE,23,2.2,6.9,72,0.00,,,0.00,WUHU216HW,2013-06-18 16:41:00,
2013-06-18 11:46:00,66.2,56.2,29.60,North,0,4.5,6.9,70,0.00,,,0.00,WUHU216HW,2013-06-18 16:46:00,
2013-06-18 11:51:00,66.2,56.2,29.60,NNE,23,4.3,4.5,70,0.00,,,0.00,WUHU216HW,2013-06-18 16:51:00,
2013-06-18 11:56:00,65.9,55.8,29.60,NNE,23,3.6,4.5,70,0.00,,,0.00,WUHU216HW,2013-06-18 16:56:00,
2013-06-18 12:01:00,65.9,56.3,29.60,ENE,68,2.9,4.3,71,0.00,,,0.00,WUHU216HW,2013-06-18 17:01:00,
2013-06-18 12:06:00,65.5,55.5,29.60,North,0,4.5,4.7,70,0.00,,,0.00,WUHU216HW,2013-06-18 17:06:00,
2013-06-18 12:11:00,65.7,56.1,29.60,North,0,3.8,4.7,71,0.00,,,0.00,WUHU216HW,2013-06-18 17:11:00,
2013-06-18 12:16:00,65.9,56.6,29.59,North,0,3.4,4.5,72,0.00,,,0.00,WUHU216HW,2013-06-18 17:16:00,
2013-06-18 12:21:00,66.6,56.5,29.59,NNW,338,1.8,3.8,70,0.00,,,0.00,WUHU216HW,2013-06-18 17:21:00,
2013-06-18 12:26:00,67.3,56.4,29.59,NNE,23,3.8,3.8,68,0.00,,,0.00,WUHU216HW,2013-06-18 17:26:00,
2013-06-18 12:31:00,67.1,56.6,29.59,NNW,338,3.6,3.8,69,0.00,,,0.00,WUHU216HW,2013-06-18 17:31:00,
2013-06-18 12:36:00,67.7,57.2,29.59,East,90,0.4,3.8,69,0.00,,,0.00,WUHU216HW,2013-06-18 17:36:00,
2013-06-18 12:41:00,68.0,57.1,29.59,North,0,4.0,4.0,68,0.00,,,0.00,WUHU216HW,2013-06-18 17:41:00,
2013-06-18 12:46:00,68.2,56.0,29.59,NNE,23,6.3,6.3,65,0.00,,,0.00,WUHU216HW,2013-06-18 17:46:00,
2013-06-18 12:51:00,67.9,55.6,29.59,ENE,68,4.0,6.3,65,0.00,,,0.00,WUHU216HW,2013-06-18 17:51:00,
2013-06-18 12:56:00,67.5,55.3,29.59,ENE,68,1.8,6.3,65,0.00,,,0.00,WUHU216HW,2013-06-18 17:56:00,
2013-06-18 13:01:00,67.9,56.1,29.59,NE,45,4.9,8.5,66,0.00,,,0.00,WUHU216HW,2013-06-18 18:01:00,
2013-06-18 13:06:00,68.4,56.2,29.59,East,90,5.8,8.5,65,0.00,,,0.00,WUHU216HW,2013-06-18 18:06:00,
2013-06-18 13:11:00,68.8,55.6,29.58,NE,45,3.8,5.8,63,0.00,,,0.00,WUHU216HW,2013-06-18 18:11:00,
2013-06-18 13:16:00,68.9,52.6,29.59,ENE,68,1.6,5.8,56,0.00,,,0.00,WUHU216HW,2013-06-18 18:16:00,
2013-06-18 13:21:00,69.1,53.7,29.59,NE,45,2.2,4.0,58,0.00,,,0.00,WUHU216HW,2013-06-18 18:21:00,
2013-06-18 13:26:00,69.5,53.6,29.59,NE,45,4.9,4.9,57,0.00,,,0.00,WUHU216HW,2013-06-18 18:26:00,
2013-06-18 13:31:00,69.8,53.9,29.59,ENE,68,5.8,5.8,57,0.00,,,0.00,WUHU216HW,2013-06-18 18:31:00,
2013-06-18 13:36:00,69.8,54.5,29.59,North,0,4.0,5.8,58,0.00,,,0.00,WUHU216HW,2013-06-18 18:36:00,
2013-06-18 13:41:00,69.5,53.1,29.59,NE,45,3.1,5.8,56,0.00,,,0.00,WUHU216HW,2013-06-18 18:41:00,
2013-06-18 13:46:00,70.0,55.1,29.59,SSE,158,2.2,4.0,59,0.00,,,0.00,WUHU216HW,2013-06-18 18:46:00,
2013-06-18 13:51:00,70.2,54.7,29.59,ENE,68,6.5,6.5,58,0.00,,,0.00,WUHU216HW,2013-06-18 18:51:00,
2013-06-18 13:56:00,70.0,53.1,29.59,NNE,23,3.4,6.5,55,0.00,,,0.00,WUHU216HW,2013-06-18 18:56:00,
2013-06-18 14:01:00,70.2,54.7,29.59,NNE,23,2.2,6.5,58,0.00,,,0.00,WUHU216HW,2013-06-18 19:01:00,
2013-06-18 14:06:00,70.4,54.9,29.59,ENE,68,1.6,3.4,58,0.00,,,0.00,WUHU216HW,2013-06-18 19:06:00,
2013-06-18 14:11:00,70.4,53.9,29.59,NNE,23,2.7,2.7,56,0.00,,,0.00,WUHU216HW,2013-06-18 19:11:00,
2013-06-18 14:16:00,70.4,51.9,29.59,North,0,4.9,4.9,52,0.00,,,0.00,WUHU216HW,2013-06-18 19:16:00,
2013-06-18 14:21:00,70.0,52.6,29.59,SE,135,1.8,4.9,54,0.00,,,0.00,WUHU216HW,2013-06-18 19:21:00,
2013-06-18 14:26:00,70.4,53.4,29.60,SE,135,5.6,5.6,55,0.00,,,0.00,WUHU216HW,2013-06-18 19:26:00,
2013-06-18 14:31:00,70.9,51.8,29.60,ENE,68,3.4,5.6,51,0.00,,,0.00,WUHU216HW,2013-06-18 19:31:00,
2013-06-18 14:36:00,70.6,51.6,29.59,East,90,3.8,5.6,51,0.00,,,0.00,WUHU216HW,2013-06-18 19:36:00,
2013-06-18 14:41:00,70.6,52.0,29.59,NE,45,4.9,4.9,52,0.00,,,0.00,WUHU216HW,2013-06-18 19:41:00,
2013-06-18 14:46:00,70.9,51.8,29.60,ENE,68,0.7,4.9,51,0.00,,,0.00,WUHU216HW,2013-06-18 19:46:00,
2013-06-18 14:51:00,70.9,50.2,29.59,NNW,338,2.5,4.9,48,0.00,,,0.00,WUHU216HW,2013-06-18 19:51:00,
2013-06-18 14:56:00,70.9,51.4,29.59,ENE,68,6.5,6.5,50,0.00,,,0.00,WUHU216HW,2013-06-18 19:56:00,
2013-06-18 15:01:00,70.7,51.8,29.59,SE,135,3.4,6.5,51,0.00,,,0.00,WUHU216HW,2013-06-18 20:01:00,
2013-06-18 15:06:00,71.1,51.6,29.59,ESE,113,2.0,6.5,50,0.00,,,0.00,WUHU216HW,2013-06-18 20:06:00,
2013-06-18 15:11:00,71.3,50.5,29.60,ESE,113,3.4,3.4,48,0.00,,,0.00,WUHU216HW,2013-06-18 20:11:00,
2013-06-18 15:16:00,70.9,49.0,29.60,ENE,68,5.8,5.8,46,0.00,,,0.00,WUHU216HW,2013-06-18 20:16:00,
2013-06-18 15:21:00,70.7,48.2,29.60,NNE,23,6.7,6.7,45,0.00,,,0.00,WUHU216HW,2013-06-18 20:21:00,
2013-06-18 15:26:00,70.7,50.1,29.60,ESE,113,3.8,6.7,48,0.00,,,0.00,WUHU216HW,2013-06-18 20:26:00,
2013-06-18 15:31:00,70.9,49.6,29.60,ENE,68,5.4,6.7,47,0.00,,,0.00,WUHU216HW,2013-06-18 20:31:00,
2013-06-18 15:36:00,71.1,49.8,29.60,SE,135,2.2,5.4,47,0.00,,,0.00,WUHU216HW,2013-06-18 20:36:00,
2013-06-18 15:41:00,71.3,50.0,29.60,NNE,23,1.8,5.4,47,0.00,,,0.00,WUHU216HW,2013-06-18 20:41:00,
2013-06-18 15:46:00,71.1,49.8,29.60,North,0,2.5,2.5,47,0.00,,,0.00,WUHU216HW,2013-06-18 20:46:00,
2013-06-18 15:51:00,70.9,49.6,29.59,ESE,113,2.2,2.5,47,0.00,,,0.00,WUHU216HW,2013-06-18 20:51:00,
2013-06-18 15:56:00,70.6,48.1,29.59,North,0,1.6,2.5,45,0.00,,,0.00,WUHU216HW,2013-06-18 20:56:00,
2013-06-18 16:01:00,70.6,47.5,29.59,North,0,6.7,6.7,44,0.00,,,0.00,WUHU216HW,2013-06-18 21:01:00,
2013-06-18 16:06:00,70.4,48.5,29.59,North,0,3.1,6.7,46,0.00,,,0.00,WUHU216HW,2013-06-18 21:06:00,
2013-06-18 16:11:00,70.6,48.1,29.59,NNE,23,6.3,6.7,45,0.00,,,0.00,WUHU216HW,2013-06-18 21:11:00,
2013-06-18 16:16:00,70.4,47.9,29.59,ESE,113,1.6,6.3,45,0.00,,,0.00,WUHU216HW,2013-06-18 21:16:00,
2013-06-18 16:21:00,70.6,48.1,29.59,ENE,68,2.5,6.3,45,0.00,,,0.00,WUHU216HW,2013-06-18 21:21:00,
2013-06-18 16:26:00,70.6,48.1,29.59,East,90,2.7,2.7,45,0.00,,,0.00,WUHU216HW,2013-06-18 21:26:00,
2013-06-18 16:31:00,70.6,48.7,29.59,NNE,23,1.1,3.8,46,0.00,,,0.00,WUHU216HW,2013-06-18 21:31:00,
2013-06-18 16:36:00,70.7,47.6,29.59,NE,45,4.0,4.0,44,0.00,,,0.00,WUHU216HW,2013-06-18 21:36:00,
2013-06-18 16:41:00,70.9,48.4,29.59,South,180,1.8,4.0,45,0.00,,,0.00,WUHU216HW,2013-06-18 21:41:00,
2013-06-18 16:46:00,70.7,47.1,29.58,ESE,113,6.9,6.9,43,0.00,,,0.00,WUHU216HW,2013-06-18 21:46:00,
2013-06-18 16:51:00,70.6,47.5,29.59,SE,135,1.8,6.9,44,0.00,,,0.00,WUHU216HW,2013-06-18 21:51:00,
2013-06-18 16:56:00,70.7,47.6,29.59,SE,135,4.0,6.9,44,0.00,,,0.00,WUHU216HW,2013-06-18 21:56:00,
2013-06-18 17:01:00,70.7,46.4,29.59,ESE,113,4.9,4.9,42,0.00,,,0.00,WUHU216HW,2013-06-18 22:01:00,
2013-06-18 17:06:00,70.6,46.9,29.59,WNW,293,2.5,4.9,43,0.00,,,0.00,WUHU216HW,2013-06-18 22:06:00,
2013-06-18 17:11:00,70.4,46.7,29.59,NE,45,3.1,4.9,43,0.00,,,0.00,WUHU216HW,2013-06-18 22:11:00,
2013-06-18 17:16:00,70.6,47.5,29.59,ENE,68,4.5,4.5,44,0.00,,,0.00,WUHU216HW,2013-06-18 22:16:00,
2013-06-18 17:21:00,70.4,47.4,29.59,NNE,23,2.9,4.5,44,0.00,,,0.00,WUHU216HW,2013-06-18 22:21:00,
2013-06-18 17:26:00,70.0,48.2,29.59,NNW,338,4.3,4.5,46,0.00,,,0.00,WUHU216HW,2013-06-18 22:26:00,
2013-06-18 17:31:00,69.8,46.8,29.58,ESE,113,4.0,4.3,44,0.00,,,0.00,WUHU216HW,2013-06-18 22:31:00,
2013-06-18 17:36:00,69.5,47.7,29.59,NNE,23,2.2,4.3,46,0.00,,,0.00,WUHU216HW,2013-06-18 22:36:00,
2013-06-18 17:41:00,70.0,47.0,29.58,ESE,113,2.2,4.9,44,0.00,,,0.00,WUHU216HW,2013-06-18 22:41:00,
2013-06-18 17:46:00,70.0,47.6,29.58,North,0,4.7,6.0,45,0.00,,,0.00,WUHU216HW,2013-06-18 22:46:00,
2013-06-18 17:51:00,70.0,48.2,29.58,ESE,113,2.0,6.0,46,0.00,,,0.00,WUHU216HW,2013-06-18 22:51:00,
2013-06-18 17:56:00,70.9,47.3,29.58,ESE,113,5.4,5.4,43,0.00,,,0.00,WUHU216HW,2013-06-18 22:56:00,
2013-06-18 18:01:00,70.7,47.6,29.58,NE,45,5.6,5.6,44,0.00,,,0.00,WUHU216HW,2013-06-18 23:01:00,
2013-06-18 18:06:00,70.6,47.5,29.58,North,0,4.0,5.6,44,0.00,,,0.00,WUHU216HW,2013-06-18 23:06:00,
2013-06-18 18:11:00,70.6,47.5,29.58,ESE,113,4.0,5.6,44,0.00,,,0.00,WUHU216HW,2013-06-18 23:11:00,
2013-06-18 18:16:00,70.6,47.5,29.59,North,0,4.7,4.7,44,0.00,,,0.00,WUHU216HW,2013-06-18 23:16:00,
2013-06-18 18:21:00,70.2,47.8,29.59,ESE,113,2.0,4.7,45,0.00,,,0.00,WUHU216HW,2013-06-18 23:21:00,
2013-06-18 18:26:00,69.3,47.5,29.59,NNE,23,2.7,4.7,46,0.00,,,0.00,WUHU216HW,2013-06-18 23:26:00,
2013-06-18 18:31:00,68.8,47.6,29.59,NNE,23,4.0,4.7,47,0.00,,,0.00,WUHU216HW,2013-06-18 23:31:00,
2013-06-18 18:36:00,68.4,47.4,29.59,NNE,23,3.4,4.0,47,0.00,,,0.00,WUHU216HW,2013-06-18 23:36:00,
2013-06-18 18:41:00,67.9,47.4,29.59,North,0,3.8,4.0,48,0.00,,,0.00,WUHU216HW,2013-06-18 23:41:00,
2013-06-18 18:46:00,67.7,47.3,29.59,East,90,3.8,3.8,48,0.00,,,0.00,WUHU216HW,2013-06-18 23:46:00,
2013-06-18 18:51:00,67.3,46.4,29.59,ENE,68,2.7,3.8,47,0.00,,,0.00,WUHU216HW,2013-06-18 23:51:00,
2013-06-18 18:56:00,67.1,46.2,29.59,ENE,68,3.1,3.8,47,0.00,,,0.00,WUHU216HW,2013-06-18 23:56:00,
2013-06-18 19:01:00,66.8,46.4,29.59,NNE,23,1.8,3.1,48,0.00,,,0.00,WUHU216HW,2013-06-19 00:01:00,
2013-06-18 19:06:00,66.6,46.9,29.59,ENE,68,2.0,3.1,49,0.00,,,0.00,WUHU216HW,2013-06-19 00:06:00,
2013-06-18 19:11:00,66.1,46.4,29.59,NE,45,2.5,2.5,49,0.00,,,0.00,WUHU216HW,2013-06-19 00:11:00,
2013-06-18 19:16:00,66.1,46.4,29.59,North,0,2.7,2.7,49,0.00,,,0.00,WUHU216HW,2013-06-19 00:16:00,
2013-06-18 19:21:00,65.9,46.2,29.59,NNE,23,1.8,2.7,49,0.00,,,0.00,WUHU216HW,2013-06-19 00:21:00,
2013-06-18 19:26:00,65.7,46.6,29.59,NNE,23,3.4,3.4,50,0.00,,,0.00,WUHU216HW,2013-06-19 00:26:00,
2013-06-18 19:31:00,65.5,46.4,29.59,NNE,23,2.0,3.4,50,0.00,,,0.00,WUHU216HW,2013-06-19 00:31:00,
2013-06-18 19:36:00,65.3,46.3,29.59,NNE,23,3.8,3.8,50,0.00,,,0.00,WUHU216HW,2013-06-19 00:36:00,
2013-06-18 19:41:00,65.0,45.9,29.59,NNE,23,2.5,3.8,50,0.00,,,0.00,WUHU216HW,2013-06-19 00:41:00,
2013-06-18 19:46:00,64.8,45.7,29.59,North,0,1.6,3.8,50,0.00,,,0.00,WUHU216HW,2013-06-19 00:46:00,
2013-06-18 19:51:00,64.6,46.0,29.59,NE,45,4.0,4.0,51,0.00,,,0.00,WUHU216HW,2013-06-19 00:51:00,
2013-06-18 19:56:00,64.4,46.4,29.59,ENE,68,1.3,4.0,52,0.00,,,0.00,WUHU216HW,2013-06-19 00:56:00,
2013-06-18 20:01:00,64.4,46.4,29.59,NNE,23,2.0,4.0,52,0.00,,,0.00,WUHU216HW,2013-06-19 01:01:00,
2013-06-18 20:06:00,64.3,46.6,29.59,ENE,68,1.8,2.0,53,0.00,,,0.00,WUHU216HW,2013-06-19 01:06:00,
2013-06-18 20:11:00,63.9,46.4,29.59,NNE,23,1.1,2.0,53,0.00,,,0.00,WUHU216HW,2013-06-19 01:11:00,
2013-06-18 20:16:00,63.7,46.6,29.59,East,90,1.8,1.8,54,0.00,,,0.00,WUHU216HW,2013-06-19 01:16:00,
2013-06-18 20:21:00,63.5,46.5,29.58,ENE,68,1.8,1.8,54,0.00,,,0.00,WUHU216HW,2013-06-19 01:21:00,
2013-06-18 20:26:00,63.0,46.5,29.58,NE,45,1.6,2.0,55,0.00,,,0.00,WUHU216HW,2013-06-19 01:26:00,
2013-06-18 20:31:00,62.6,46.6,29.58,ENE,68,1.6,2.0,56,0.00,,,0.00,WUHU216HW,2013-06-19 01:31:00,
2013-06-18 20:36:00,62.5,46.5,29.58,ENE,68,1.6,1.6,56,0.00,,,0.00,WUHU216HW,2013-06-19 01:36:00,
2013-06-18 20:41:00,62.1,46.6,29.58,NNE,23,1.3,1.6,57,0.00,,,0.00,WUHU216HW,2013-06-19 01:41:00,
2013-06-18 20:46:00,61.7,46.4,29.59,NE,45,1.1,1.6,57,0.00,,,0.00,WUHU216HW,2013-06-19 01:46:00,
2013-06-18 20:51:00,61.6,46.6,29.59,NE,45,1.1,1.3,58,0.00,,,0.00,WUHU216HW,2013-06-19 01:51:00,
2013-06-18 20:56:00,60.8,46.5,29.59,NE,45,1.1,1.1,59,0.00,,,0.00,WUHU216HW,2013-06-19 01:56:00,
2013-06-18 21:01:00,60.7,46.4,29.59,NE,45,1.3,1.3,59,0.00,,,0.00,WUHU216HW,2013-06-19 02:01:00,
2013-06-18 21:06:00,60.5,46.6,29.59,ENE,68,0.9,1.3,60,0.00,,,0.00,WUHU216HW,2013-06-19 02:06:00,
2013-06-18 21:11:00,59.9,46.5,29.59,NE,45,1.1,2.0,61,0.00,,,0.00,WUHU216HW,2013-06-19 02:11:00,
2013-06-18 21:16:00,59.8,46.4,29.59,NE,45,0.4,2.0,61,0.00,,,0.00,WUHU216HW,2013-06-19 02:16:00,
2013-06-18 21:21:00,59.4,46.4,29.60,ENE,68,0.2,1.1,62,0.00,,,0.00,WUHU216HW,2013-06-19 02:21:00,
2013-06-18 21:26:00,59.4,46.4,29.60,NE,45,1.3,1.3,62,0.00,,,0.00,WUHU216HW,2013-06-19 02:26:00,
2013-06-18 21:31:00,59.4,46.4,29.61,NE,45,0.0,1.3,62,0.00,,,0.00,WUHU216HW,2013-06-19 02:31:00,
2013-06-18 21:36:00,59.0,45.6,29.61,ENE,68,0.4,1.3,61,0.00,,,0.00,WUHU216HW,2013-06-19 02:36:00,
2013-06-18 21:41:00,58.9,45.5,29.61,ENE,68,0.9,1.1,61,0.00,,,0.00,WUHU216HW,2013-06-19 02:41:00,
2013-06-18 21:46:00,58.7,45.7,29.61,ENE,68,0.7,0.9,62,0.00,,,0.00,WUHU216HW,2013-06-19 02:46:00,
2013-06-18 21:51:00,58.0,45.8,29.61,ENE,68,1.1,1.1,64,0.00,,,0.00,WUHU216HW,2013-06-19 02:51:00,
2013-06-18 21:56:00,57.4,45.7,29.61,ENE,68,0.0,1.1,65,0.00,,,0.00,WUHU216HW,2013-06-19 02:56:00,
2013-06-18 22:01:00,57.2,45.5,29.61,ENE,68,0.0,1.1,65,0.00,,,0.00,WUHU216HW,2013-06-19 03:01:00,
2013-06-18 22:06:00,57.2,45.9,29.61,SE,135,0.0,0.7,66,0.00,,,0.00,WUHU216HW,2013-06-19 03:06:00,
2013-06-18 22:11:00,57.1,45.8,29.61,SE,135,0.0,0.7,66,0.00,,,0.00,WUHU216HW,2013-06-19 03:11:00,
2013-06-18 22:16:00,57.1,45.8,29.61,SE,135,0.0,0.0,66,0.00,,,0.00,WUHU216HW,2013-06-19 03:16:00,
2013-06-18 22:21:00,56.7,45.8,29.62,ESE,113,0.4,0.4,67,0.00,,,0.00,WUHU216HW,2013-06-19 03:21:00,
2013-06-18 22:26:00,56.5,46.1,29.62,ESE,113,0.0,0.4,68,0.00,,,0.00,WUHU216HW,2013-06-19 03:26:00,
2013-06-18 22:31:00,56.2,46.2,29.61,ESE,113,0.9,0.9,69,0.00,,,0.00,WUHU216HW,2013-06-19 03:31:00,
2013-06-18 22:36:00,55.8,45.8,29.61,ENE,68,0.0,1.1,69,0.00,,,0.00,WUHU216HW,2013-06-19 03:36:00,
2013-06-18 22:41:00,55.6,46.1,29.61,ENE,68,0.2,1.1,70,0.00,,,0.00,WUHU216HW,2013-06-19 03:41:00,
2013-06-18 22:46:00,55.4,45.9,29.61,ENE,68,0.0,0.2,70,0.00,,,0.00,WUHU216HW,2013-06-19 03:46:00,
2013-06-18 22:51:00,55.4,45.9,29.61,ENE,68,0.9,0.9,70,0.00,,,0.00,WUHU216HW,2013-06-19 03:51:00,
2013-06-18 22:56:00,55.6,46.1,29.61,ENE,68,0.7,0.9,70,0.00,,,0.00,WUHU216HW,2013-06-19 03:56:00,
2013-06-18 23:01:00,55.6,46.1,29.61,ENE,68,0.4,0.9,70,0.00,,,0.00,WUHU216HW,2013-06-19 04:01:00,
2013-06-18 23:06:00,55.4,46.3,29.61,ENE,68,0.2,0.7,71,0.00,,,0.00,WUHU216HW,2013-06-19 04:06:00,
2013-06-18 23:11:00,55.1,46.3,29.61,ENE,68,0.4,0.7,72,0.00,,,0.00,WUHU216HW,2013-06-19 04:11:00,
2013-06-18 23:16:00,54.9,46.1,29.61,ENE,68,0.0,0.7,72,0.00,,,0.00,WUHU216HW,2013-06-19 04:16:00,
2013-06-18 23:21:00,54.9,46.1,29.61,ENE,68,0.0,0.4,72,0.00,,,0.00,WUHU216HW,2013-06-19 04:21:00,
2013-06-18 23:26:00,54.7,46.3,29.61,ENE,68,0.0,0.0,73,0.00,,,0.00,WUHU216HW,2013-06-19 04:26:00,
2013-06-18 23:31:00,54.9,46.5,29.61,ENE,68,0.0,0.0,73,0.00,,,0.00,WUHU216HW,2013-06-19 04:31:00,
2013-06-18 23:36:00,54.9,46.5,29.61,ENE,68,0.0,0.0,73,0.00,,,0.00,WUHU216HW,2013-06-19 04:36:00,
2013-06-18 23:41:00,54.7,46.3,29.61,ENE,68,0.0,0.0,73,0.00,,,0.00,WUHU216HW,2013-06-19 04:41:00,
2013-06-18 23:46:00,54.2,45.7,29.61,ENE,68,0.7,0.9,73,0.00,,,0.00,WUHU216HW,2013-06-19 04:46:00,
2013-06-18 23:51:00,54.0,45.9,29.61,ENE,68,0.0,0.9,74,0.00,,,0.00,WUHU216HW,2013-06-19 04:51:00,
2013-06-18 23:56:00,53.8,46.1,29.61,ENE,68,0.0,0.7,75,0.00,,,0.00,WUHU216HW,2013-06-19 04:56:00,